Regional Weather Roundup
Issued by NWS

Home | Current Version | Previous Version | Graphics & Text | Print | Product List | Glossary On
Versions: 1 2 3 4 5 6 7 8 9 10 11 12 13 14 15 16 17 18 19 20 21 22 23 24 25 26 27 28 29 30 31 32 33 34 35 36 37 38 39 40 41 42 43 44 45 46 47 48 49 50
000
ASUS44 KMEG 270800
RWRTN
TENNESSEE HOURLY STATE WEATHER ROUNDUP
NATIONAL WEATHER SERVICE MEMPHIS TN
200 AM CST THU NOV 27 2014

TNZ002-004-019-021-049-052-054-088>092-270900-
WEST TENNESSEE

CITY           SKY/WX    TMP DP  RH WIND       PRES   REMARKS
MEMPHIS INTL   PTCLDY    41  28  60 NW16G23   30.26R
NWS MEMPHIS      N/A     40 N/A N/A MISG        N/A
JACKSON        CLOUDY    39  33  79 W7        30.22R WCI  34
DYERSBURG      CLOUDY    39  25  56 NW12G20   30.25R WCI  32
UNION CITY     CLOUDY    36  32  87 NW20      30.20R WCI  25
PARIS          CLOUDY    36  32  87 NW7       30.18R WCI  30
LEXINGTON      CLOUDY    39  32  75 NW9       30.17R WCI  33
SAVANNAH       CLOUDY    37  34  87 W5        30.20R WCI  34
$$

TNZ008-025-027-028-033-062-065-066-270900-
NORTH MIDDLE TENNESSEE

CITY           SKY/WX    TMP DP  RH WIND       PRES   REMARKS
NASHVILLE      CLOUDY    40  34  79 NW8       30.13R WCI  34
CLARKSVILLE    CLOUDY    37  34  89 NW16G24   30.14R WCI  28
CROSSVILLE     CLOUDY    37  31  78 W14       30.03R WCI  28
$$

TNZ061-075-076-078-094-096-097-270900-
SOUTH MIDDLE TENNESSEE

CITY           SKY/WX    TMP DP  RH WIND       PRES   REMARKS
WINCHESTER     CLOUDY    37  32  81 W6        30.12S WCI  33
SHELBYVILLE    CLOUDY    39  36  87 W8        30.13R WCI  34
$$

TNZ017-018-042-046-047-270900-
NORTHEAST TENNESSEE

CITY           SKY/WX    TMP DP  RH WIND       PRES   REMARKS
TRI CITIES     LGT RAIN  37  35  92 CALM      29.98S
ELIZABETHTON   LGT RAIN  34  34 100 CALM      29.97R
$$

TNZ012-013-036-069-073-074-270900-
CENTRAL EAST TENNESSEE

CITY           SKY/WX    TMP DP  RH WIND       PRES   REMARKS
KNOXVILLE      CLOUDY    39  37  92 W9        30.03S WCI  33
OAK RIDGE      CLOUDY    39  37  92 VRB6      30.03R WCI  35
GATLINBURG     PTSUNNY   36  34  93 SW6       30.02F WCI  31
$$

TNZ083-085-099-270900-
SOUTHEAST TENNESSEE

CITY           SKY/WX    TMP DP  RH WIND       PRES   REMARKS
CHATTANOOGA    CLOUDY    43  31  62 W12G21    30.10R
$$

SKY/WX REPORTED AS FAIR MEANS FEW OR NO CLOUDS BELOW
12 THOUSAND FEET.



USA.gov is the U.S. government's official web portal to all federal, state and local government web resources and services.